TimeMST,TemperatureF,Dew PointF,Humidity,Sea Level PressureIn,VisibilityMPH,Wind Direction,Wind SpeedMPH,Gust SpeedMPH,PrecipitationIn,Events,Conditions,WindDirDegrees,DateUTC
12:53 AM,3.9,-0.0,84,30.25,10.0,Calm,Calm,-,N/A,,Clear,0,2013-02-12 07:53:00
1:53 AM,1.9,-0.9,88,30.25,10.0,SE,4.6,-,N/A,,Clear,130,2013-02-12 08:53:00
2:53 AM,-0.9,-5.1,83,30.26,10.0,Calm,Calm,-,N/A,,Clear,0,2013-02-12 09:53:00
3:53 AM,1.0,-2.9,83,30.25,10.0,Calm,Calm,-,N/A,,Clear,0,2013-02-12 10:53:00
4:53 AM,-0.9,-5.1,83,30.27,10.0,Calm,Calm,-,N/A,,Clear,0,2013-02-12 11:53:00
5:53 AM,-0.9,-5.1,83,30.29,10.0,WSW,5.8,-,N/A,,Clear,250,2013-02-12 12:53:00
6:53 AM,-2.0,-6.0,83,30.29,10.0,Calm,Calm,-,N/A,,Clear,0,2013-02-12 13:53:00
7:53 AM,-2.0,-5.1,87,30.32,10.0,SE,3.5,-,N/A,,Clear,130,2013-02-12 14:53:00
8:53 AM,3.0,-0.0,87,30.32,10.0,ESE,3.5,-,N/A,,Clear,120,2013-02-12 15:53:00
9:53 AM,9.0,3.0,77,30.33,10.0,Calm,Calm,-,N/A,,Clear,0,2013-02-12 16:53:00
10:53 AM,12.9,5.0,71,30.34,10.0,Calm,Calm,-,N/A,,Partly Cloudy,0,2013-02-12 17:53:00
11:53 AM,15.1,5.0,64,30.33,10.0,Calm,Calm,-,N/A,,Mostly Cloudy,0,2013-02-12 18:53:00
12:53 PM,19.9,8.1,60,30.28,10.0,East,3.5,-,N/A,,Overcast,90,2013-02-12 19:53:00
1:53 PM,23.0,10.0,58,30.26,10.0,East,6.9,-,N/A,,Clear,100,2013-02-12 20:53:00
2:53 PM,26.1,10.9,53,30.24,10.0,South,4.6,-,N/A,,Partly Cloudy,180,2013-02-12 21:53:00
3:53 PM,28.0,12.0,51,30.22,10.0,South,6.9,-,N/A,,Overcast,170,2013-02-12 22:53:00
4:53 PM,27.0,12.9,56,30.21,10.0,SSE,3.5,-,N/A,,Clear,150,2013-02-12 23:53:00
5:53 PM,24.1,14.0,65,30.22,10.0,ESE,4.6,-,N/A,,Clear,120,2013-02-13 00:53:00
6:53 PM,21.9,12.0,66,30.25,10.0,SE,4.6,-,N/A,,Mostly Cloudy,130,2013-02-13 01:53:00
7:53 PM,23.0,12.0,63,30.25,10.0,East,5.8,-,N/A,,Overcast,100,2013-02-13 02:53:00
8:53 PM,23.0,12.9,65,30.22,10.0,Calm,Calm,-,N/A,,Overcast,0,2013-02-13 03:53:00
9:53 PM,21.0,12.0,68,30.20,10.0,SSE,4.6,-,N/A,,Clear,150,2013-02-13 04:53:00
10:53 PM,19.9,12.0,71,30.18,10.0,East,4.6,-,N/A,,Clear,100,2013-02-13 05:53:00
11:53 PM,18.0,9.0,68,30.17,10.0,Calm,Calm,-,N/A,,Clear,0,2013-02-13 06:53:00